Weather observations for the past three days for
Lynchburg, Lynchburg Regional Airport
Imperial (Metric)
Date Time (edt) Wind (mph) Vis. (mi.) Weather Sky Cond. Temperature (ºF) Relative Humidity Wind Chill (°F) Heat Index (°F) Pressure Precipitation (in)
Air Dwpt 6 hour altimeter (in) sea level (mb) 1 hr 3 hr 6 hr
Max. Min.
20 14:54 NE 5 10.00 Mostly Cloudy BKN011 BKN034 79 69.1 72% 82 30.1 1018.3
20 13:54 NE 6 10.00 Mostly Cloudy BKN011 BKN034 BKN050 75.9 69.1 77 72 79% 77 30.11 1018.8 0.01 0.41
20 12:54 N 3 10.00 Light Rain BKN007 BKN013 OVC080 73.9 72 94% 30.13 1019.3 0.06
20 11:54 N 3 3.00 Rain Fog/Mist BKN007 BKN065 OVC080 73 71.1 94% 30.13 1019.4 0.14
20 10:54 N 5 2.50 Rain Fog/Mist BKN005 BKN030 OVC060 73 71.1 94% 30.13 1019.5 0.17 0.2
20 09:54 NE 5 3.00 Light Rain Fog/Mist BKN005 BKN016 OVC022 73 71.1 94% 30.14 1019.5 0.02
20 08:54 NE 3 6.00 Light Rain Fog/Mist BKN005 OVC010 73 70 90% 30.13 1019.2 0.01
20 07:54 Vrbl 3 7.00 Light Rain BKN006 BKN035 OVC120 73 70 73 70 90% 30.12 1019.0
20 06:54 NE 3 10.00 Overcast BKN007 BKN011 OVC037 73 70 90% 30.12 1019.0
20 05:54 NE 3 10.00 Overcast BKN029 OVC100 72 69.1 91% 30.12 1018.7
20 04:54 NE 3 10.00 Overcast OVC017 72 68 87% 30.11 1018.5
20 03:54 NE 3 10.00 Overcast OVC026 72 69.1 91% 30.11 1018.6
20 02:54 Calm 10.00 Partly Cloudy SCT015 70 68 93% 30.12 1018.8
20 01:54 Calm 10.00 Overcast BKN017 OVC026 71.1 69.1 79 69.1 94% 30.13 1019.2
20 00:54 Calm 10.00 Overcast OVC120 70 66.9 90% 30.14 1019.7
19 21:54 SE 6 10.00 Fair CLR 73.4 66.2 78% 30.14 0.0
19 19:55 SE 6 10.00 Fair CLR 78.8 66.2 65% 81 30.11 0.0
19 18:54 E 6 10.00 Fair CLR 82.4 66.2 58% 85 30.1 0.0
19 17:55 E 6 10.00 Fair CLR 84.2 64.4 51% 86 30.1 0.0
19 16:55 Vrbl 6 10.00 A Few Clouds FEW044 84.2 64.4 51% 86 30.09 0.0
19 16:54 Vrbl 6 10.00 A Few Clouds FEW044 84.2 64.4 51% 86 30.09 0.0
19 15:55 NE 6 10.00 Fair CLR 86 64.4 49% 87 30.1 0.0
19 15:54 E 7 10.00 Fair CLR 84.2 62.6 48% 85 30.13 0.0
19 14:54 E 7 10.00 Fair CLR 84.2 62.6 48% 85 30.13 0.0
19 13:54 Vrbl 6 10.00 A Few Clouds FEW043 84 61 84 71.1 46% 84 30.15 1019.8
19 12:54 Vrbl 7 10.00 Partly Cloudy SCT035 SCT042 SCT090 82.9 66 57% 85 30.16 1020.3
19 11:54 Vrbl 5 10.00 Mostly Cloudy SCT028 SCT075 BKN100 80.1 66 62% 82 30.16 1020.2
19 10:54 NE 7 10.00 Mostly Cloudy BKN075 78.1 64.9 64% 80 30.16 1020.2
19 09:54 Vrbl 7 10.00 Mostly Cloudy FEW038 BKN080 77 66.9 71% 79 30.15 1019.9
19 08:54 NE 7 10.00 Mostly Cloudy BKN029 75 68 79% 76 30.14 1019.9
19 07:54 N 6 10.00 Overcast OVC095 71.1 68 71.1 66 90% 30.12 1019.0
19 06:54 N 5 10.00 Overcast OVC095 69.1 66.9 93% 30.11 1018.5
19 05:54 Calm 1.25 Fog/Mist CLR 66 66 100% 30.08 1017.7
19 04:54 Calm 10.00 Fair CLR 69.1 66.9 93% 30.06 1017.1
19 03:54 Calm 10.00 Mostly Cloudy BKN080 70 68 93% 30.05 1016.6
19 02:54 Calm 10.00 Mostly Cloudy BKN080 70 68 93% 30.06 1016.8
19 01:54 Calm 10.00 Mostly Cloudy SCT075 SCT085 BKN110 71.1 69.1 72 70 94% 30.07 1017.2
19 00:54 Calm 10.00 Overcast SCT065 BKN085 OVC110 71.1 69.1 94% 30.07 1017.1
18 22:54 Calm 10.00 Partly Cloudy FEW070 SCT120 70 69.1 97% 30.05 1016.7
18 21:54 N 3 10.00 Mostly Cloudy FEW005 BKN085 71.1 69.1 94% 30.04 1016.1
18 20:54 Calm 10.00 Overcast OVC070 71.1 69.1 94% 30.03 1015.9
18 19:54 Calm 10.00 Light Rain FEW031 SCT049 OVC065 71.1 69.1 82 70 94% 30 1015.1 0.34 0.34
18 17:54 NE 3 10.00 A Few Clouds FEW090 80.1 71.1 74% 84 29.97 1013.7
18 16:54 Vrbl 5 10.00 Partly Cloudy SCT027 81 70 69% 84 29.98 1014.1
18 15:54 Vrbl 7 10.00 A Few Clouds FEW024 81 70 69% 84 29.97 1013.9
18 14:54 Calm 10.00 Partly Cloudy FEW018 SCT035 SCT050 81 71.1 72% 85 29.99 1014.5
18 13:54 N 5 10.00 Overcast SCT012 BKN017 OVC075 77 71.1 80.1 72 82% 79 30.01 1015.1 0.71
18 12:54 N 7 10.00 Light Rain FEW035 SCT047 BKN100 75.9 72 88% 76 30 1014.8 0.39
18 11:50 NW 8 0.50 Thunderstorm Heavy Rain Fog FEW008 BKN014 OVC022 72 71.1 97% 30.01 1015.3 0.32
18 10:54 Calm 10.00 Overcast BKN090 OVC120 79 73 82% 82 29.98 1014.3
18 09:54 N 3 10.00 Fair CLR 78.1 73 85% 81 29.97 1013.8
18 08:54 Calm 10.00 Mostly Cloudy BKN004 77 73 88% 78 29.98 1014.1
18 07:54 S 3 9.00 Mostly Cloudy BKN002 73 71.1 73 71.1 94% 29.97 1013.9
18 06:54 S 5 3.00 Fog/Mist OVC003 72 71.1 97% 29.95 1013.3
18 05:54 Calm 10.00 A Few Clouds FEW003 72 71.1 97% 29.94 1012.8
18 04:54 S 6 9.00 Overcast OVC002 73 72 96% 29.93 1012.2
18 03:54 S 3 6.00 Fog/Mist OVC002 73 72 96% 29.91 1011.7
18 02:54 S 5 0.50 Fog VV002 73 72 96% 29.93 1012.2
18 01:54 S 6 2.00 Fog/Mist BKN001 OVC006 73 72 75 72 96% 29.94 1012.5 0.07
18 00:54 SW 3 9.00 A Few Clouds FEW002 FEW120 73 71.1 94% 29.94 1012.8 0.02
17 23:54 E 5 6.00 Rain Fog/Mist SCT005 BKN090 OVC110 73 72 96% 29.94 1012.5 0.05
17 22:54 SW 6 10.00 A Few Clouds FEW060 73 71.1 94% 29.95 1013.0
17 21:54 S 3 10.00 Partly Cloudy SCT110 73 72 96% 29.95 1013.1
17 20:54 Calm 10.00 A Few Clouds FEW095 73.9 72 94% 29.93 1012.5
17 19:54 S 16 10.00 Light Rain BKN060 BKN075 BKN110 75 72 96.1 71.1 90% 74 29.92 1012.2 0.01 1.1
17 18:54 N 6 10.00 Mostly Cloudy BKN070 75 72 90% 74 29.89 1011.2 0.03
17 17:54 Vrbl 5 4.00 Thunderstorm Rain Fog/Mist FEW033 SCT090 BKN110 73 70 90% 29.88 1011.0 1.06
17 16:54 S 10 10.00 Thunderstorm in Vicinity FEW080 BKN110 93 70 47% 99 29.84 1009.3
17 15:54 S 9 10.00 Mostly Cloudy SCT070 BKN090 93.9 66 40% 97 29.86 1009.8
Date Time (edt) Wind (mph) Vis. (mi.) Weather Sky Cond. Air Dwpt Max. Min. Relative Humidity Wind Chill (°F) Heat Index (°F) altimeter (in) sea level (mb) 1 hr 3 hr 6 hr
6 hour
Temperature (ºF) Pressure Precipitation (in)